sat.trackr.live / text

‹ back to catalog

STARLINK-34190

NORAD 64078 · 2025-107Q

PAYLOAD ACTIVE UNKNOWN

§ Identity

Operator
Country
US
Launch date
2025-05-21
Launch site
AFETR
Launch vehicle
Mass (kg)
RCS (m²)

Purposes: comms

External: N2YO · Heavens-Above · Gunter

§ Orbital elements

Epoch: 2026-05-25T00:17:34.620000Z

Period
94.27 min
Inclination
42.9956°
Eccentricity
0.0000985
Mean motion
15.27605935 rev/d
Perigee alt
482.3 km
Apogee alt
483.6 km
Semi-major
6,861.1 km
B*
4.1605e-4
RAAN
130.4607°
Arg perigee
171.6923°
Mean anomaly
188.3945°
Rev number
5,779

§ Raw data

STARLINK-341901 64078U 25107Q   26145.01220625  .00011213  00000+0  41605-3 0  99922 64078  42.9956 130.4607 0000985 171.6923 188.3945 15.27605935 57793

JSON: /api/v1/satellites/64078 · /tle

For live sub-satellite position, see the globe view (requires WebGL).

§ Visibility from observer

Set your observer location to see the next 7 days of passes ≥ 10°. The values pass through the URL so the page stays shareable.

No JS? Fill the form by hand. The geolocation button needs JavaScript.